Atqasuk Edward Burnell Sr Mem, AK

7:31 PM AKST on November 16, 2019 (GMT -0900)
Atqasuk Edward Burnell Sr Mem

Weather History for PATQ - May, 2019

Change the Weather History Date:

Saturday, May 18, 2019

  Actual Average (WUND) Record (WUND)
Temperature  
Mean Temperature 32 °F -  
Max Temperature 34 °F - - (-1)
Min Temperature 30 °F - - (-1)
Degree Days  
Heating Degree Days 33    
Moisture  
Dew Point 30 °F    
Average Humidity 93    
Maximum Humidity 100    
Minimum Humidity 87    
Precipitation  
Precipitation 0.00 in - - ()
Sea Level Pressure  
Sea Level Pressure 29.81 in    
Wind  
Wind Speed 24 mph (East)    
Max Wind Speed 31 mph    
Max Gust Speed 33 mph    
Visibility 3 miles    
Events Fog , Rain , Snow    
Averages and records for this station are not official NWS values.
T = Trace of Precipitation, MM = Missing Value Source: NWS Daily Summary

Daily Weather History Graph

Daily Weather History Graph

Search for Another Location

Airport or City:

Astronomy

May. 18, 2019 Rise Set
Actual Time 2:58 AM AKDT 1:53 AM AKDT
Civil Twilight Sun does not rise Sun does not rise
Nautical Twilight Sun does not rise Sun does not rise
Astronomical Twilight Sun does not rise Sun does not rise
Moon No Moon Rise 5:03 AM AKDT (5/18)
Length of Visible Light 24h 00m
Length of Day
22h 55m
Full, 100% of the Moon is Illuminated
May 18
Full
May 18
Full
May 26
Last Quarter
Jun 3
New
Jun 9
First Quarter

Hourly Weather History & Observations

Time (AKDT) Temp. Windchill Dew Point Humidity Pressure Visibility Wind Dir Wind Speed Gust Speed Precip Events Conditions
12:45 AM 30.2 °F 15.7 °F 30.2 °F 100% 29.77 in 10.0 mi East 27.6 mph - N/A   Scattered Clouds
12:56 AM 30.9 °F 16.4 °F 30.0 °F 96% 29.79 in 10.0 mi East 28.8 mph 33.4 mph N/A   Scattered Clouds
1:06 AM 30.2 °F 15.2 °F 30.2 °F 100% 29.77 in 10.0 mi East 29.9 mph - N/A   Mostly Cloudy
1:24 AM 30.2 °F 16.2 °F 30.2 °F 100% 29.77 in 8.0 mi East 25.3 mph - N/A   Overcast
1:56 AM 30.9 °F 15.9 °F 30.0 °F 96% 29.79 in 8.0 mi East 31.1 mph - N/A   Overcast
2:33 AM 30.2 °F 15.4 °F 30.2 °F 100% 29.77 in 5.0 mi East 28.8 mph - N/A   Overcast
2:56 AM 30.9 °F 16.9 °F 30.0 °F 96% 29.80 in 3.0 mi East 26.5 mph 31.1 mph N/A   Overcast
3:40 AM 30.2 °F 16.8 °F 30.2 °F 100% 29.78 in 1.8 mi East 23.0 mph - 0.00 in Snow Light Snow
3:47 AM 30.2 °F 15.9 °F 28.4 °F 93% 29.78 in 0.8 mi East 26.5 mph - 0.00 in Snow Light Snow
3:51 AM 30.2 °F 16.8 °F 28.4 °F 93% 29.78 in 1.2 mi East 23.0 mph - 0.00 in Snow Light Snow
3:56 AM 30.0 °F 16.0 °F 28.9 °F 96% 29.81 in 1.2 mi East 25.3 mph - 0.00 in Snow Light Snow
4:02 AM 30.2 °F 15.9 °F 28.4 °F 93% 29.78 in 1.0 mi East 26.5 mph - 0.00 in Snow Light Snow
4:10 AM 30.2 °F 16.5 °F 28.4 °F 93% 29.78 in 1.2 mi East 24.2 mph - 0.00 in Snow Light Snow
4:14 AM 30.2 °F 16.5 °F 28.4 °F 93% 29.78 in 1.0 mi East 24.2 mph - 0.00 in Snow Light Snow
4:22 AM 30.2 °F 16.5 °F 28.4 °F 93% 29.78 in 0.8 mi East 24.2 mph - 0.00 in Snow Light Snow
4:27 AM 30.2 °F 17.4 °F 28.4 °F 93% 29.78 in 1.0 mi East 20.7 mph - 0.00 in Snow Light Snow
4:29 AM 30.2 °F 17.1 °F 28.4 °F 93% 29.78 in 0.8 mi East 21.9 mph - 0.00 in Snow Light Snow
4:40 AM 30.2 °F 16.8 °F 28.4 °F 93% 29.78 in 0.5 mi East 23.0 mph - 0.00 in Fog , Snow Light Snow
4:54 AM 30.2 °F 16.5 °F 28.4 °F 93% 29.78 in 0.8 mi East 24.2 mph - 0.00 in Snow Light Snow
4:56 AM 30.0 °F 16.3 °F 28.9 °F 96% 29.80 in 0.8 mi East 24.2 mph - 0.00 in Snow Light Snow
5:14 AM 30.2 °F 17.1 °F 28.4 °F 93% 29.79 in 1.0 mi East 21.9 mph - 0.00 in Snow Light Snow
5:24 AM 30.2 °F 17.1 °F 28.4 °F 93% 29.79 in 1.2 mi East 21.9 mph - 0.00 in Snow Light Snow
5:32 AM 30.2 °F 17.4 °F 28.4 °F 93% 29.79 in 1.8 mi East 20.7 mph - 0.00 in Snow Light Snow
5:34 AM 30.2 °F 17.4 °F 28.4 °F 93% 29.79 in 2.0 mi East 20.7 mph - 0.00 in Snow Light Snow
5:49 AM 30.2 °F 17.1 °F 28.4 °F 93% 29.78 in 1.2 mi East 21.9 mph - 0.00 in Snow Light Snow
5:56 AM 30.0 °F 16.3 °F 28.9 °F 96% 29.81 in 1.8 mi East 24.2 mph - 0.00 in Snow Light Snow
6:02 AM 30.2 °F 15.9 °F 28.4 °F 93% 29.78 in 3.0 mi East 26.5 mph - 0.00 in Snow Light Snow
6:12 AM 30.2 °F 16.5 °F 28.4 °F 93% 29.78 in 1.8 mi East 24.2 mph - 0.00 in Snow Light Snow
6:22 AM 30.2 °F 16.8 °F 28.4 °F 93% 29.78 in 3.0 mi East 23.0 mph - 0.00 in Snow Light Snow
6:33 AM 30.2 °F 16.5 °F 28.4 °F 93% 29.78 in 1.8 mi East 24.2 mph - 0.00 in Snow Light Snow
6:44 AM 30.2 °F 16.5 °F 28.4 °F 93% 29.78 in 1.2 mi East 24.2 mph - 0.00 in Snow Light Snow
6:56 AM 30.0 °F 16.6 °F 30.0 °F 100% 29.81 in 3.0 mi East 23.0 mph - 0.00 in   Partly Cloudy
7:56 AM 30.9 °F 17.2 °F 30.0 °F 96% 29.81 in 10.0 mi East 25.3 mph - N/A   Clear
8:56 AM 30.9 °F 17.2 °F 30.0 °F 96% 29.80 in 10.0 mi East 25.3 mph - N/A   Partly Cloudy
9:39 AM 32.0 °F 19.5 °F 30.2 °F 93% 29.79 in 9.0 mi ESE 21.9 mph - N/A   Mostly Cloudy
9:56 AM 32.0 °F 19.2 °F 30.0 °F 92% 29.81 in 7.0 mi East 23.0 mph - N/A   Overcast
10:08 AM 32.0 °F 18.9 °F 30.2 °F 93% 29.79 in 6.0 mi East 24.2 mph - N/A   Overcast
10:56 AM 32.0 °F 19.5 °F 30.0 °F 92% 29.82 in 10.0 mi East 21.9 mph - N/A   Overcast
11:48 AM 32.0 °F 19.5 °F 30.2 °F 93% 29.80 in 8.0 mi East 21.9 mph - N/A   Overcast
11:56 AM 32.0 °F 20.1 °F 30.0 °F 92% 29.83 in 9.0 mi East 19.6 mph - N/A   Overcast
12:56 PM 33.1 °F 20.6 °F 30.0 °F 89% 29.83 in 9.0 mi East 23.0 mph - N/A   Overcast
1:56 PM 33.1 °F 21.9 °F 30.9 °F 92% 29.83 in 5.0 mi ESE 18.4 mph - N/A   Overcast
2:48 PM 33.8 °F 22.2 °F 30.2 °F 87% 29.82 in 1.5 mi East 20.7 mph - N/A   Overcast
2:53 PM 33.8 °F 22.5 °F 30.2 °F 87% 29.82 in 0.8 mi ESE 19.6 mph - N/A   Overcast
2:56 PM 33.1 °F 21.5 °F 30.9 °F 92% 29.84 in 0.8 mi East 19.6 mph - N/A   Overcast
3:04 PM 33.8 °F 22.8 °F 32.0 °F 93% 29.81 in 1.2 mi ESE 18.4 mph - N/A   Overcast
3:09 PM 33.8 °F 22.2 °F 32.0 °F 93% 29.81 in 3.0 mi East 20.7 mph - N/A   Overcast
3:19 PM 33.8 °F 22.5 °F 30.2 °F 87% 29.82 in 1.8 mi East 19.6 mph - N/A   Overcast
3:28 PM 33.8 °F 22.8 °F 32.0 °F 93% 29.82 in 5.0 mi ESE 18.4 mph - N/A   Overcast
3:54 PM 33.8 °F 22.8 °F 30.2 °F 87% 29.82 in 1.8 mi East 18.4 mph - N/A   Overcast
3:56 PM 34.0 °F 22.7 °F 30.9 °F 89% 29.84 in 1.2 mi East 19.6 mph - N/A   Overcast
4:13 PM 33.8 °F 22.8 °F 30.2 °F 87% 29.82 in 0.8 mi East 18.4 mph - N/A   Overcast
4:23 PM 33.8 °F 23.2 °F 32.0 °F 93% 29.82 in 0.5 mi ESE 17.3 mph - N/A Fog Fog
4:56 PM 34.0 °F 22.4 °F 32.0 °F 92% 29.85 in 0.5 mi ESE 20.7 mph - N/A Fog Fog
5:07 PM 33.8 °F 22.2 °F 30.2 °F 87% 29.82 in 0.2 mi East 20.7 mph - N/A Fog Fog
5:56 PM 34.0 °F 24.2 °F 32.0 °F 92% 29.86 in 0.2 mi East 15.0 mph - 0.00 in Fog Fog
6:56 PM 33.1 °F 21.2 °F 30.9 °F 92% 29.86 in 0.2 mi East 20.7 mph - 0.00 in Fog , Rain Light Rain
7:56 PM 32.0 °F 20.1 °F 30.9 °F 96% 29.86 in 0.2 mi East 19.6 mph - 0.00 in Fog Fog
8:15 PM 32.0 °F 20.5 °F 30.2 °F 93% 29.85 in 0.5 mi East 18.4 mph - 0.00 in Fog Fog
8:27 PM 32.0 °F 20.5 °F 30.2 °F 93% 29.85 in 0.2 mi East 18.4 mph - 0.00 in Fog Fog
8:53 PM 32.0 °F 20.5 °F 30.2 °F 93% 29.85 in 0.8 mi East 18.4 mph - 0.00 in   Overcast
8:56 PM 32.0 °F 20.5 °F 30.9 °F 96% 29.88 in 0.8 mi East 18.4 mph - 0.00 in   Overcast
9:04 PM 32.0 °F 20.1 °F 30.2 °F 93% 29.86 in 0.5 mi East 19.6 mph - 0.00 in Fog Fog
9:56 PM 32.0 °F 21.2 °F 30.9 °F 96% 29.89 in 0.2 mi East 16.1 mph - 0.00 in Fog Fog
10:56 PM 30.9 °F 19.8 °F 30.9 °F 100% 29.90 in 0.2 mi East 16.1 mph - 0.00 in Fog Light Freezing Fog
11:56 PM 30.9 °F 19.8 °F 30.0 °F 96% 29.91 in 0.2 mi East 16.1 mph - 0.00 in Fog Light Freezing Fog